Flag for Germany Weather past 2 weeks in Titisee-Neustadt, Baden-Württemberg, Germany

Now
55 °F

Passing clouds.


Feels Like: 55 °F
Forecast: 53 / 72 °F
Wind: 1 mph from West

Location: Freiburg

Current Time: Aug 1, 2015 at 3:43:59 AM

Latest Report: Aug 1, 2015 at 3:00 AM


Visibility: 34 mi

Pressure: 29.91 "Hg (27.14 "Hg at 813m altitude)

Humidity: 85%

Dew point: 51 °F

Location of Titisee-NeustadtLocation

Historic Weather in Titisee-Neustadt — Graph

°F

Titisee-Neustadt temperature yesterday

Maximum temperature yesterday: 74 °F (at 4:00 PM)
Minimum temperature yesterday: 44 °F (at 7:00 AM)
Average temperature yesterday: 62 °F

Past Weeks' High & Low Weather Summary

 TemperatureHumidityPressure
High96 °F (Jul 17, 3:00 PM)98% (Jul 23, 3:00 AM)30.11 "Hg (Jul 23, 3:00 AM)
Low44 °F (Jul 31, 7:00 AM)23% (Jul 17, 3:00 PM)29.65 "Hg (Jul 24, 7:00 PM)
Average71 °F63%29.93 "Hg
* Reported Jul 17 1:00 AM — Aug 1 1:00 AM, Titisee-Neustadt, Weather by CustomWeather, © 2015

Note: Actual official high and low records may vary slightly from our data, if they occured in-between our weather recording intervals... More about our weather records

Advertising

Titisee-Neustadt weather history for previous 24 hours

 ConditionsComfort  
Time TempWeatherWind HumidityBarometerVisibility
1:00 AM
Sat, Aug 1
61 °FOvercast.1 mph67%29.91 "Hg43 mi
12:00 AM61 °FOvercast.1 mph71%29.92 "Hg43 mi
11:00 PM
Fri, Jul 31
63 °FOvercast.1 mph61%29.91 "Hg37 mi
10:00 PM63 °FOvercast.1 mph62%29.91 "Hg43 mi
9:00 PM66 °FOvercast.1 mph52%29.90 "Hg43 mi
7:00 PM71 °FScattered clouds.6 mph44%29.88 "Hg37 mi
6:00 PM74 °FPassing clouds.7 mph40%29.89 "Hg14 mi
4:00 PM74 °FPartly sunny.8 mph43%29.91 "Hg13 mi
3:00 PM73 °FPassing clouds.7 mph44%29.94 "Hg14 mi
1:00 PM71 °FScattered clouds.7 mph48%29.99 "Hg19 mi
12:00 PM68 °FScattered clouds.5 mph52%30.01 "Hg19 mi
10:00 AM58 °FScattered clouds.3 mph66%30.06 "Hg31 mi
9:00 AM55 °FPartly sunny.2 mph70%30.08 "Hg40 mi
7:00 AM44 °FPassing clouds.1 mph93%30.11 "Hg31 mi
4:00 AM47 °FPassing clouds.1 mph94%30.11 "Hg28 mi
3:00 AM48 °FPassing clouds.No wind90%30.11 "Hg37 mi
Weather by CustomWeather, © 2015

See weather overviewHow to use our weather pages